Regional Weather Roundup
Issued by NWS Jackson, KY

Home | Current Version | Previous Version | Graphics & Text | Print | Product List | Glossary On
Versions: 1 2 3 4 5 6 7 8 9 10 11 12 13 14 15 16 17 18 19 20 21 22 23 24 25 26 27 28 29 30 31 32 33 34 35 36 37 38 39 40 41 42 43 44 45 46 47 48 49 50
000
ASUS43 KJKL 280510
RWRJKL

EAST KENTUCKY HOURLY WEATHER ROUNDUP
NATIONAL WEATHER SERVICE JACKSON KY
1200 AM EST SAT FEB 28 2015

NOTE: "FAIR" INDICATES FEW OR NO CLOUDS BELOW 12,000 FEET WITH
NO SIGNIFICANT WEATHER AND/OR OBSTRUCTIONS TO VISIBILITY.

* THESE REPORTS ARE NOT UNDER NWS QUALITY CONTROL AND MAY NOT
  REPORT WEATHER SUCH AS PRECIPITATION AND FOG.

KYZ079-080-083-085-087-088-110-112-115-119-120-280600
...EASTERN KENTUCKY...

CITY           SKY/WX    TMP DP  RH WIND       PRES   REMARKS
JACKSON        MOCLDY    18   6  59 NE3       30.58S
LONDON         PTCLDY    19   4  51 NE5       30.57F WCI  12
SOMERSET*      MOCLDY    18   5  57 CALM      30.62F
MONTICELLO*    PTCLDY    19   8  62 NE6       30.62F WCI  11
MIDDLESBORO*   MOCLDY    23  10  56 CALM      30.57S
HAZARD APT*    CLEAR     21   9  58 CALM      30.58F
PIKEVILLE APT* CLEAR     18   7  62 NE7       30.57S WCI   8
BIG SANDY*     MOCLDY    19   8  62 NE7       30.60S WCI   9
MOREHEAD APT*  MOCLDY    16   0  48 NE7       30.65F WCI   6
$$

KYZ035-036-041-042-044-050-067-078-099-280600
...CENTRAL KENTUCKY...

CITY           SKY/WX    TMP DP  RH WIND       PRES   REMARKS
MT STERLING*   CLOUDY    18   5  57 E6        30.64S WCI   9
FLEMING/MASON* CLEAR     12   1  62 NE6       30.66S WCI   3
DANVILLE*      CLOUDY    18   9  68 E3        30.62S
RICHMOND*      MOCLDY    18   7  62 NE5       30.61F WCI  11
LEXINGTON      MOCLDY    18   6  59 E10       30.62F WCI   6
FRANKFORT        N/A     18   2  49 N6        30.63S WCI  10
$$

KYZ091>093-OHZ055-061-077-WVZ005-015-034-035-042-280600
...SOUTHERN OHIO/WEST VIRGINIA...

CITY           SKY/WX    TMP DP  RH WIND       PRES   REMARKS
COVINGTON      MOCLDY    13   1  59 E7        30.65R WCI   3
COLUMBUS       CLOUDY     8  -2  63 CALM      30.67F
DAYTON         CLOUDY    12   0  58 SE3       30.65F
WILMINGTON     CLOUDY     9  -4  55 E6        30.64S WCI  -1
HUNTINGTON     MOCLDY    15   2  56 NE6       30.66R WCI   6
CHARLESTON     PTCLDY    15   6  67 NE5       30.64S WCI   8
PINEVILLE*     PTCLDY    10   8  92 MISG      30.61S
BECKLEY          N/A     10   2  69 CALM      30.50S
BLUEFIELD      PTCLDY    13   3  64 NE3       30.47S
$$

VAZ002-007-008-TNZ017-027-036-066-071-280600
...SOUTHWEST VIRGINIA/EAST TENNESSEE...

CITY           SKY/WX    TMP DP  RH WIND       PRES   REMARKS
WISE*          CLEAR     14   7  73 NE5       30.47F WCI   6
JONESVILLE*    CLEAR     14  10  85 CALM      30.56F
ABINGDON*      CLEAR     16  11  80 CALM      30.49S
BRISTOL        CLEAR     18  12  77 CALM      30.53R
KNOXVILLE      MOCLDY    26  12  55 NE6       30.54R WCI  19
OAK RIDGE      PTCLDY    27  10  49 NE6       30.56R WCI  20
CROSSVILLE     MOCLDY    20   8  60 NE8       30.50R WCI  10
NASHVILLE      CLOUDY    25   7  46 NE10      30.59S WCI  15
$$

...KEY TO REMARKS...
VSB - VISIBILITY IN MILES
WCI - WIND CHILL INDEX
HX  - HEAT INDEX

$$


USA.gov is the U.S. government's official web portal to all federal, state and local government web resources and services.